Список аэропортов
Фактическая погода:

23 февраля, 18:00
Температура: +4°C (-2.5*)
Ветер: сев.-восточный 13 м/с
Давление: *768 мм
Без существ. явл.
Время (МСК)Темп. СВетерВлажностьДавлениеОблачностьОсадки
15:00+4СВ, 16 м/с29%1021 гПаясно
16:00+5СВ, 15 м/с29%1022 гПамалооблачно
17:00+4С, 15 м/с30%1022 гПаясно
18:00+4С, 14 м/с31%1023 гПаясно
19:00+3С, 14 м/с32%1024 гПаясно
20:00+2С, 13 м/с30%1024 гПаясно
21:00+2С, 13 м/с30%1025 гПаясно
22:00+2С, 13 м/с31%1025 гПаясно
23:00+2СВ, 13 м/с30%1026 гПаясно
24 февраля
00:00+2СВ, 12 м/с28%1026 гПаясно
01:00+2С, 10 м/с27%1027 гПаясно
02:00+2С, 10 м/с26%1028 гПаясно
03:00+2СВ, 10 м/с25%1028 гПаясно
04:00+2СВ, 9 м/с24%1028 гПаясно
05:00+3СВ, 7 м/с24%1027 гПаясно
06:00+3С, 8 м/с24%1027 гПаясно
07:00+3СВ, 8 м/с24%1028 гПаясно
08:00+3С, 8 м/с23%1028 гПаясно
09:00+3С, 8 м/с24%1029 гПамалооблачно
10:00+4СВ, 7 м/с23%1029 гПас прояснениями
11:00+5СВ, 7 м/с27%1029 гПас прояснениями
12:00+6СВ, 6 м/с26%1028 гПас прояснениями
13:00+7СВ, 6 м/с26%1028 гПас прояснениями
14:00+8СВ, 7 м/с25%1028 гПаоблачно
15:00+9СВ, 6 м/с24%1028 гПаоблачно
16:00+9СВ, 7 м/с24%1028 гПаоблачно
17:00+8СВ, 6 м/с25%1028 гПаоблачно
18:00+8С, 5 м/с26%1028 гПаоблачно
19:00+7С, 4 м/с26%1028 гПаоблачно
20:00+6С, 6 м/с26%1029 гПаоблачно
21:00+5С, 6 м/с28%1030 гПамалооблачно
22:00+5С, 7 м/с30%1030 гПамалооблачно
23:00+4С, 7 м/с32%1030 гПамалооблачно
25 февраля
00:00+4С, 8 м/с32%1030 гПамалооблачно
01:00+3С, 8 м/с33%1031 гПаясно
02:00+3С, 9 м/с34%1030 гПамалооблачно
03:00+3С, 8 м/с34%1030 гПас прояснениями
04:00+2С, 8 м/с35%1030 гПаясно
05:00+2С, 9 м/с35%1030 гПаясно
06:00+2С, 8 м/с35%1029 гПаясно
07:00+2С, 6 м/с32%1030 гПаясно
08:00+2СВ, 5 м/с25%1030 гПаоблачно
09:00+3СВ, 7 м/с26%1029 гПаясно
10:00+4СВ, 9 м/с27%1029 гПамалооблачно
11:00+5СВ, 10 м/с31%1029 гПаоблачно
12:00+8СВ, 8 м/с31%1029 гПаясно
13:00+10СВ, 5 м/с32%1029 гПаясно
14:00+12СВ, 2 м/с31%1028 гПаясно
15:00+13СЗ, 1 м/с32%1028 гПаясно